TIME,DELAY(SENSOR),PRES,OXYGEN,RAWTEMP,T(OPTODE),TCPHASE,FLUOR,BETA(BETA700),BETA(BETA412),BETA(BETA440),CDOM,C(CSC),ED(ED412.40),ED(ED444.00),ED(ED489.70),ED(ED554.30),LU(LU411.80),LU(LU443.40),LU(LU489.60),LU(LU554.10),COMP,TILTX,TILTY,CHECK
1342928450,5806,895.7100219726562000,42.7270812988281250,659.2902832031250000,4.6513347625732420,54.5801391601562500,53,100,89,80,82,15384,2147758281,2147425764,2148006336,2147873216,2147643693,2147061860,2148258176,2147198317,1560,4,14,15425
1342932046,5809,960.8200073242188000,48.8683280944824200,668.5847778320312000,4.3449339866638180,53.8080406188964840,53,99,88,79,82,15388,2147762176,2147420114,2148006308,2147874523,2147642020,2147061677,2148264960,2147197696,3453,4,13,57960
1342935646,5805,978.2399902343750000,50.0130882263183600,670.7396850585938000,4.2737598419189450,53.6768684387207000,52,98,89,79,81,15384,2147759259,2147422564,2148006464,2147874998,2147643026,2147064722,2148260013,2147195446,3517,5,13,29090
1342939246,5808,982.8800048828125000,49.8254890441894500,670.5687255859375000,4.2794108390808105,53.7016410827636700,52,98,86,80,82,15387,2147758134,2147421641,2148004525,2147873700,2147645220,2147060827,2148254747,2147197869,229,5,13,50543
1342942846,5808,978.1799926757812000,50.4563407897949200,672.0089111328125000,4.2318129539489750,53.6327514648437500,52,101,88,79,81,15387,2147758720,2147423131,2148008859,2147877778,2147644196,2147061357,2148263478,2147201462,923,5,13,58367
1342946446,5809,988.7700195312500000,50.5186996459960940,672.5980834960938000,4.2123341560363770,53.6310806274414060,53,102,89,80,82,15387,2147757686,2147423890,2148008804,2147876790,2147644507,2147057764,2148260726,2147198400,368,5,13,24677
1342950046,5810,991.8699951171875000,50.3156585693359400,672.2984008789062000,4.2222418785095215,53.6580505371093750,52,96,87,80,82,15385,2147757156,2147420717,2148007570,2147876324,2147646921,2147063990,2148265718,2147201216,330,5,13,47054
1342953646,5803,980.6500244140625000,50.4244689941406250,673.5698852539062000,4.1801991462707520,53.6563987731933600,52,102,87,80,81,15385,2147763245,2147422153,2148008612,2147876434,2147644864,2147058413,2148262171,2147202185,681,4,13,1565
1342957246,5808,981.3599853515625000,50.5462913513183600,675.0167236328125000,4.1323342323303220,53.6566696166992200,53,99,91,80,81,15387,2147760173,2147421339,2148008329,2147875684,2147642230,2147058861,2148258221,2147201718,275,4,13,51965
1342960846,5808,986.1099853515625000,50.8579483032226560,675.0454711914062000,4.1313819885253910,53.6148605346679700,52,110,83,79,82,15388,2147762130,2147421074,2148005284,2147874669,2147644644,2147056411,2148262857,2147197686,437,5,13,65443
1342964446,5810,1005.9600219726562000,50.0837097167968750,673.6488037109375000,4.1775879859924320,53.7026710510253900,53,98,87,80,82,15383,2147759442,2147419392,2148008841,2147874614,2147641115,2147058898,2148260352,2147201225,642,4,13,16274
1342968046,5804,1004.3599853515625000,49.7512283325195300,671.2933959960938000,4.2554631233215330,53.7210083007812500,53,99,88,78,81,15388,2147762514,2147421696,2148006134,2147872027,2147644553,2147056960,2148261942,2147200539,511,5,13,54713
1342971646,5810,1004.7100219726562000,50.0562095642089840,671.2116088867188000,4.2581648826599120,53.6800994873046900,52,98,89,79,82,15388,2147757750,2147420736,2148005924,2147876873,2147646281,2147060937,2148259437,2147196150,328,4,13,63234
1342975246,5808,1001.9299926757812000,49.2861900329589840,671.0015258789062000,4.2651081085205080,53.7821693420410160,52,99,87,79,81,15385,2147756397,2147419090,2148003035,2147875492,2147644050,2147062217,2148257545,2147202212,3417,4,13,8240
1342978846,5811,1006.0499877929688000,49.3611106872558600,671.5903930664062000,4.2456459999084470,53.7811393737793000,53,98,87,78,83,15383,2147759734,2147420452,2148005650,2147875657,2147644315,2147058688,2148261513,2147197275,430,4,13,36999
1342982446,5807,1003.1699829101562000,49.6048202514648440,671.8331298828125000,4.2376232147216800,53.7455711364746100,52,99,86,78,82,15385,2147758866,2147421110,2148006902,2147875556,2147644544,2147065984,2148259693,2147199241,814,5,13,58409
1342986046,5810,1000.0700073242188000,49.1845092773437500,672.4498901367188000,4.2172341346740720,53.8134803771972660,52,99,88,79,82,15385,2147758253,2147421046,2148004571,2147873307,2147643392,2147058395,2148261970,2147194404,267,4,13,34176
1342989646,5809,998.2600097656250000,49.9003791809082000,673.2537841796875000,4.1906528472900390,53.7267417907714840,52,97,90,79,82,15381,2147760868,2147422390,2148008777,2147874157,2147644004,2147057792,2148258139,2147200868,163,5,13,33683
1342993246,5807,995.8300170898438000,49.4645118713378900,673.8145141601562000,4.1721100807189940,53.7897186279296900,52,100,83,79,81,15386,2147762560,2147420544,2148010066,2147875392,2147640566,2147058358,2148258386,2147195684,474,5,13,30260
1342996846,5809,990.1199951171875000,49.9346504211425800,674.7886962890625000,4.1398792266845700,53.7394981384277340,53,101,84,78,82,15384,2147757869,2147421632,2148008064,2147875401,2147642660,2147063442,2148263945,2147193856,468,5,13,28540
1343000446,5810,996.7600097656250000,50.4786186218261700,675.5728149414062000,4.1139302253723145,53.6726188659668000,53,101,85,80,81,15384,2147760228,2147421238,2148005430,2147877010,2147644891,2147058806,2148262016,2147201170,94,5,13,9502
1343004046,5810,992.9899902343750000,50.9406509399414060,675.4105834960938000,4.1192970275878910,53.6084213256835940,52,98,90,77,82,15383,2147760649,2147418944,2148005449,2147876443,2147643529,2147060096,2148260397,2147196470,12,5,13,56110
1343007646,5809,997.6199951171875000,50.5873908996582000,675.4514160156250000,4.1179471015930180,53.6559715270996100,53,99,89,79,82,15382,2147760429,2147420836,2148009581,2147873334,2147643538,2147062162,2148264109,2147198482,3584,4,13,26633
1343011246,5809,1010.6799926757812000,50.5693588256835940,674.4722900390625000,4.1503472328186035,53.6502914428710940,52,99,89,79,82,15380,2147758921,2147421476,2148007350,2147875611,2147641938,2147059904,2148261440,2147195108,3459,4,13,35347
1343014846,5805,1008.9699707031250000,49.5968704223632800,672.4014892578125000,4.2188339233398440,53.7539100646972660,52,100,89,78,82,15385,2147757174,2147422107,2148006628,2147873718,2147643684,2147059776,2148259227,2147196800,565,5,13,30469
1343018446,5807,1016.0499877929688000,49.2849388122558600,671.1514892578125000,4.2601509094238280,53.7857704162597660,52,99,87,80,81,15382,2147758683,2147421065,2148005458,2147875794,2147642358,2147059986,2148261138,2147199049,614,5,13,3375
1343022046,5811,1002.6900024414062000,49.2162818908691400,671.3502197265625000,4.2535858154296875,53.7956504821777340,52,101,89,80,83,15380,2147758454,2147420544,2148008658,2147874112,2147644699,2147059355,2148260278,2147202276,2107,4,13,43194
1343025646,5809,999.5599975585938000,49.3238296508789060,672.3521728515625000,4.2204627990722660,53.7943801879882800,52,99,89,78,82,15379,2147759040,2147419373,2148008109,2147875108,2147646912,2147064128,2148264237,2147199158,4,5,13,57006
1343029246,5809,997.0999755859375000,49.6784095764160160,674.2310791015625000,4.1583251953125000,53.7682800292968750,52,99,88,78,82,15360,2147757878,2147419492,2148009773,2147873673,2147644214,2147059200,2148260589,2147202578,493,4,13,55070
1343032846,5811,1002.2299804687500000,49.6931915283203100,674.7540283203125000,4.1410269737243650,53.7743186950683600,52,99,89,79,81,15364,2147760832,2147422372,2148005184,2147875675,2147646756,2147058066,2148264804,2147198281,469,4,13,25669
1343036446,5804,1000.1099853515625000,50.6276206970214840,675.4948120117188000,4.1165099143981930,53.6571006774902340,51,99,90,80,83,15364,2147760521,2147421650,2148008137,2147872987,2147642706,2147060964,2148257325,2147198445,184,4,13,3003
1343040046,5808,999.7700195312500000,49.9599189758300800,674.3054199218750000,4.1558690071105960,53.7288894653320300,53,99,88,78,82,15361,2147758381,2147419126,2148003200,2147877385,2147641270,2147062144,2148258971,2147198948,570,4,13,50978
1343043646,5808,1007.0999755859375000,50.9143409729003900,675.2802124023438000,4.1236147880554200,53.6083793640136700,53,98,86,78,82,15363,2147757659,2147419730,2148008502,2147876928,2147643730,2147058898,2148261915,2147200182,3037,5,13,35479
1343047246,5810,1005.3400268554688000,50.7669792175293000,674.5548095703125000,4.1476168632507320,53.6207885742187500,52,97,87,80,80,15362,2147758976,2147423049,2148009956,2147877248,2147644306,2147063670,2148257682,2147199369,3324,5,13,37717
1343050846,5809,1005.3699951171875000,49.6921806335449200,674.1854248046875000,4.1598381996154785,53.7659492492675800,52,101,87,79,82,15359,2147759350,2147423588,2148011958,2147874742,2147643154,2147063067,2148257920,2147199277,226,4,13,64663
1343054446,5806,1009.9199829101562000,49.2933502197265600,672.8192749023438000,4.2050209045410160,53.8003616333007800,53,98,89,80,82,15342,2147757668,2147423040,2148006930,2147875547,2147643931,2147064859,2148258422,2147199926,3328,4,13,9505
1343058046,5811,1019.9299926757812000,49.6545295715332000,671.5718994140625000,4.2462577819824220,53.7369689941406250,52,100,88,79,82,15346,2147758153,2147420937,2148007405,2147875867,2147642989,2147060333,2148258550,2147200813,3262,4,13,58125
1343061646,5812,1014.7399902343750000,49.4315490722656250,671.5155029296875000,4.2481207847595215,53.7652511596679700,52,99,89,79,82,15339,2147760649,2147422601,2148007606,2147874505,2147642624,2147064210,2148258176,2147198317,88,5,13,14076
1343065246,5809,1017.3300170898438000,49.6489982604980500,671.6417236328125000,4.2439498901367190,53.7368812561035160,52,100,89,79,82,15338,2147758125,2147421376,2148007387,2147875584,2147641316,2147059913,2148258322,2147199497,207,4,13,33155
1343068846,5809,1004.7299804687500000,48.9430999755859400,673.5443115234375000,4.1810441017150880,53.8603401184082000,52,99,87,80,82,15340,2147762596,2147420809,2148009078,2147874550,2147641142,2147063652,2148255259,2147197897,706,4,13,45273
1343072446,5809,1007.4299926757812000,49.2275314331054700,674.2556152343750000,4.1575179100036620,53.8331108093261700,52,98,91,80,82,15341,2147762148,2147424155,2148009033,2147872941,2147641974,2147058221,2148260589,2147198582,3289,5,13,13295
1343073055,5807,1006.5100097656250000,49.2336883544921900,674.2672119140625000,4.1571350097656250,53.8309211730957000,53,98,91,80,81,15382,2147760274,2147421805,2148008448,2147873819,2147642889,2147065197,2148258130,2147202998,3238,5,13,59755
